Time,TemperatureF,DewpointF,PressureIn,WindDirection,WindDirectionDegrees,WindSpeedMPH,WindSpeedGustMPH,Humidity,HourlyPrecipIn,Conditions,Clouds,dailyrainin,SoftwareType,DateUTC
2013-02-24 00:12:00,14.0,-99.9,-100.00,North,-999,-999.0,-999.0,-999,0.00,,,0.24,,2013-02-24 07:12:00,
2013-02-24 00:22:00,14.0,-99.9,-100.00,North,-999,-999.0,-999.0,-999,0.00,,,0.24,,2013-02-24 07:22:00,
2013-02-24 00:32:00,14.0,-99.9,-100.00,North,-999,-999.0,-999.0,-999,0.00,,,0.24,,2013-02-24 07:32:00,
2013-02-24 00:42:00,14.0,-99.9,-100.00,North,-999,-999.0,-999.0,-999,0.00,,,0.24,,2013-02-24 07:42:00,
2013-02-24 01:11:00,16.0,-99.9,-100.00,North,-999,-999.0,-999.0,-999,0.00,,,0.23,,2013-02-24 08:11:00,
2013-02-24 01:22:00,16.0,-99.9,-100.00,North,-999,-999.0,-999.0,-999,0.00,,,0.23,,2013-02-24 08:22:00,
2013-02-24 01:32:00,16.0,-99.9,-100.00,North,-999,-999.0,-999.0,-999,0.00,,,0.23,,2013-02-24 08:32:00,
2013-02-24 01:42:00,16.0,-99.9,-100.00,North,-999,-999.0,-999.0,-999,0.00,,,0.23,,2013-02-24 08:42:00,
2013-02-24 02:11:00,16.0,-99.9,-100.00,North,-999,-999.0,-999.0,-999,-99.99,,,0.22,,2013-02-24 09:11:00,
2013-02-24 02:22:00,16.0,-99.9,-100.00,North,-999,-999.0,-999.0,-999,-99.99,,,0.22,,2013-02-24 09:22:00,
2013-02-24 02:32:00,16.0,-99.9,-100.00,North,-999,-999.0,-999.0,-999,-99.99,,,0.22,,2013-02-24 09:32:00,
2013-02-24 02:42:00,16.0,-99.9,-100.00,North,-999,-999.0,-999.0,-999,-99.99,,,0.22,,2013-02-24 09:42:00,
2013-02-24 03:11:00,15.0,-99.9,-100.00,North,-999,-999.0,-999.0,-999,0.01,,,0.22,,2013-02-24 10:11:00,
2013-02-24 03:22:00,15.0,-99.9,-100.00,North,-999,-999.0,-999.0,-999,0.01,,,0.22,,2013-02-24 10:22:00,
2013-02-24 03:42:00,15.0,-99.9,-100.00,North,-999,-999.0,-999.0,-999,0.01,,,0.22,,2013-02-24 10:42:00,
2013-02-24 04:11:00,15.0,-99.9,-100.00,North,-999,-999.0,-999.0,-999,-99.99,,,0.19,,2013-02-24 11:11:00,
2013-02-24 05:11:00,11.0,-99.9,-100.00,North,-999,-999.0,-999.0,-999,-99.99,,,0.19,,2013-02-24 12:11:00,
2013-02-24 05:22:00,11.0,-99.9,-100.00,North,-999,-999.0,-999.0,-999,-99.99,,,0.19,,2013-02-24 12:22:00,
2013-02-24 05:45:00,7.0,-99.9,-100.00,North,-999,-999.0,-999.0,-999,-99.99,,,0.19,,2013-02-24 12:45:00,
2013-02-24 06:18:00,7.0,-99.9,-100.00,North,-999,-999.0,-999.0,-999,-99.99,,,0.19,,2013-02-24 13:18:00,
2013-02-24 06:27:00,7.0,-99.9,-100.00,North,-999,-999.0,-999.0,-999,-99.99,,,0.19,,2013-02-24 13:27:00,
2013-02-24 06:36:00,7.0,-99.9,-100.00,North,-999,-999.0,-999.0,-999,-99.99,,,0.19,,2013-02-24 13:36:00,
2013-02-24 06:45:00,3.0,-99.9,-100.00,North,-999,-999.0,-999.0,-999,0.00,,,0.18,,2013-02-24 13:45:00,
2013-02-24 07:15:00,3.0,-99.9,-100.00,North,-999,-999.0,-999.0,-999,0.00,,,0.18,,2013-02-24 14:15:00,
2013-02-24 07:26:00,3.0,-99.9,-100.00,North,-999,-999.0,-999.0,-999,0.00,,,0.18,,2013-02-24 14:26:00,
2013-02-24 07:35:00,3.0,-99.9,-100.00,North,-999,-999.0,-999.0,-999,0.00,,,0.18,,2013-02-24 14:35:00,
2013-02-24 09:12:00,8.0,-99.9,-100.00,North,-999,-999.0,-999.0,-999,0.00,,,0.15,,2013-02-24 16:12:00,
2013-02-24 09:22:00,8.0,-99.9,-100.00,North,-999,-999.0,-999.0,-999,0.00,,,0.15,,2013-02-24 16:22:00,
2013-02-24 09:32:00,8.0,-99.9,-100.00,North,-999,-999.0,-999.0,-999,0.00,,,0.15,,2013-02-24 16:32:00,
2013-02-24 09:42:00,8.0,-99.9,-100.00,North,-999,-999.0,-999.0,-999,0.00,,,0.15,,2013-02-24 16:42:00,
2013-02-24 10:12:00,18.0,-99.9,-100.00,North,-999,-999.0,-999.0,-999,-99.99,,,0.12,,2013-02-24 17:12:00,
2013-02-24 10:42:00,18.0,-99.9,-100.00,North,-999,-999.0,-999.0,-999,-99.99,,,0.12,,2013-02-24 17:42:00,
2013-02-24 11:12:00,24.0,-99.9,-100.00,North,-999,-999.0,-999.0,-999,0.00,,,0.10,,2013-02-24 18:12:00,
2013-02-24 11:22:00,24.0,-99.9,-100.00,North,-999,-999.0,-999.0,-999,0.00,,,0.10,,2013-02-24 18:22:00,
2013-02-24 11:32:00,24.0,-99.9,-100.00,North,-999,-999.0,-999.0,-999,0.00,,,0.10,,2013-02-24 18:32:00,
2013-02-24 11:42:00,24.0,-99.9,-100.00,North,-999,-999.0,-999.0,-999,0.00,,,0.10,,2013-02-24 18:42:00,
2013-02-24 12:12:00,27.0,-99.9,-100.00,North,-999,-999.0,-999.0,-999,0.00,,,0.07,,2013-02-24 19:12:00,
2013-02-24 12:22:00,27.0,-99.9,-100.00,North,-999,-999.0,-999.0,-999,0.00,,,0.07,,2013-02-24 19:22:00,
2013-02-24 12:32:00,27.0,-99.9,-100.00,North,-999,-999.0,-999.0,-999,0.00,,,0.07,,2013-02-24 19:32:00,
2013-02-24 12:42:00,27.0,-99.9,-100.00,North,-999,-999.0,-999.0,-999,0.00,,,0.07,,2013-02-24 19:42:00,
2013-02-24 13:11:00,32.0,-99.9,-100.00,North,-999,-999.0,-999.0,-999,0.00,,,0.05,,2013-02-24 20:11:00,
2013-02-24 13:22:00,32.0,-99.9,-100.00,North,-999,-999.0,-999.0,-999,0.00,,,0.05,,2013-02-24 20:22:00,
2013-02-24 13:32:00,32.0,-99.9,-100.00,North,-999,-999.0,-999.0,-999,0.00,,,0.05,,2013-02-24 20:32:00,
2013-02-24 13:42:00,32.0,-99.9,-100.00,North,-999,-999.0,-999.0,-999,0.00,,,0.05,,2013-02-24 20:42:00,
2013-02-24 14:11:00,31.0,-99.9,-100.00,North,-999,-999.0,-999.0,-999,0.00,,,0.05,,2013-02-24 21:11:00,
2013-02-24 14:22:00,31.0,-99.9,-100.00,North,-999,-999.0,-999.0,-999,0.00,,,0.05,,2013-02-24 21:22:00,
2013-02-24 14:32:00,31.0,-99.9,-100.00,North,-999,-999.0,-999.0,-999,0.00,,,0.05,,2013-02-24 21:32:00,
2013-02-24 14:42:00,31.0,-99.9,-100.00,North,-999,-999.0,-999.0,-999,0.00,,,0.05,,2013-02-24 21:42:00,
2013-02-24 15:11:00,32.0,-99.9,-100.00,North,-999,-999.0,-999.0,-999,0.00,,,0.05,,2013-02-24 22:11:00,
2013-02-24 15:22:00,32.0,-99.9,-100.00,North,-999,-999.0,-999.0,-999,0.00,,,0.05,,2013-02-24 22:22:00,
2013-02-24 15:32:00,32.0,-99.9,-100.00,North,-999,-999.0,-999.0,-999,0.00,,,0.05,,2013-02-24 22:32:00,
2013-02-24 15:42:00,32.0,-99.9,-100.00,North,-999,-999.0,-999.0,-999,0.00,,,0.05,,2013-02-24 22:42:00,
2013-02-24 16:11:00,31.0,-99.9,-100.00,North,-999,-999.0,-999.0,-999,0.00,,,0.04,,2013-02-24 23:11:00,
2013-02-24 16:22:00,31.0,-99.9,-100.00,North,-999,-999.0,-999.0,-999,0.00,,,0.04,,2013-02-24 23:22:00,
2013-02-24 16:32:00,31.0,-99.9,-100.00,North,-999,-999.0,-999.0,-999,0.00,,,0.04,,2013-02-24 23:32:00,
2013-02-24 16:42:00,31.0,-99.9,-100.00,North,-999,-999.0,-999.0,-999,0.00,,,0.04,,2013-02-24 23:42:00,
2013-02-24 17:12:00,29.0,-99.9,-100.00,North,-999,-999.0,-999.0,-999,0.00,,,0.01,,2013-02-25 00:12:00,
2013-02-24 17:22:00,29.0,-99.9,-100.00,North,-999,-999.0,-999.0,-999,0.00,,,0.01,,2013-02-25 00:22:00,
2013-02-24 17:32:00,29.0,-99.9,-100.00,North,-999,-999.0,-999.0,-999,0.00,,,0.01,,2013-02-25 00:32:00,
2013-02-24 17:42:00,29.0,-99.9,-100.00,North,-999,-999.0,-999.0,-999,0.00,,,0.01,,2013-02-25 00:42:00,
2013-02-24 18:22:00,20.0,-99.9,-100.00,North,-999,-999.0,-999.0,-999,0.00,,,0.00,,2013-02-25 01:22:00,
2013-02-24 18:32:00,20.0,-99.9,-100.00,North,-999,-999.0,-999.0,-999,0.00,,,0.00,,2013-02-25 01:32:00,
2013-02-24 18:42:00,20.0,-99.9,-100.00,North,-999,-999.0,-999.0,-999,0.00,,,0.00,,2013-02-25 01:42:00,
2013-02-24 19:11:00,17.0,-99.9,-100.00,North,-999,-999.0,-999.0,-999,0.00,,,-99.99,,2013-02-25 02:11:00,
2013-02-24 19:22:00,17.0,-99.9,-100.00,North,-999,-999.0,-999.0,-999,0.00,,,-99.99,,2013-02-25 02:22:00,
2013-02-24 19:32:00,17.0,-99.9,-100.00,North,-999,-999.0,-999.0,-999,0.00,,,-99.99,,2013-02-25 02:32:00,
2013-02-24 19:42:00,17.0,-99.9,-100.00,North,-999,-999.0,-999.0,-999,0.00,,,-99.99,,2013-02-25 02:42:00,
2013-02-24 20:12:00,14.0,-99.9,-100.00,North,-999,-999.0,-999.0,-999,0.00,,,-99.99,,2013-02-25 03:12:00,
2013-02-24 20:22:00,14.0,-99.9,-100.00,North,-999,-999.0,-999.0,-999,0.00,,,-99.99,,2013-02-25 03:22:00,
2013-02-24 20:32:00,14.0,-99.9,-100.00,North,-999,-999.0,-999.0,-999,0.00,,,-99.99,,2013-02-25 03:32:00,
2013-02-24 20:42:00,14.0,-99.9,-100.00,North,-999,-999.0,-999.0,-999,0.00,,,-99.99,,2013-02-25 03:42:00,
2013-02-24 21:11:00,11.0,-99.9,-100.00,North,-999,-999.0,-999.0,-999,0.00,,,-99.99,,2013-02-25 04:11:00,
2013-02-24 21:22:00,11.0,-99.9,-100.00,North,-999,-999.0,-999.0,-999,0.00,,,-99.99,,2013-02-25 04:22:00,
2013-02-24 21:32:00,11.0,-99.9,-100.00,North,-999,-999.0,-999.0,-999,0.00,,,-99.99,,2013-02-25 04:32:00,
2013-02-24 21:42:00,11.0,-99.9,-100.00,North,-999,-999.0,-999.0,-999,0.00,,,-99.99,,2013-02-25 04:42:00,
2013-02-24 22:11:00,8.0,-99.9,-100.00,North,-999,-999.0,-999.0,-999,0.00,,,-99.99,,2013-02-25 05:11:00,
2013-02-24 22:22:00,8.0,-99.9,-100.00,North,-999,-999.0,-999.0,-999,0.00,,,-99.99,,2013-02-25 05:22:00,
2013-02-24 22:32:00,8.0,-99.9,-100.00,North,-999,-999.0,-999.0,-999,0.00,,,-99.99,,2013-02-25 05:32:00,
2013-02-24 22:42:00,8.0,-99.9,-100.00,North,-999,-999.0,-999.0,-999,0.00,,,-99.99,,2013-02-25 05:42:00,
2013-02-24 23:12:00,6.0,-99.9,-100.00,North,-999,-999.0,-999.0,-999,0.00,,,-99.99,,2013-02-25 06:12:00,
2013-02-24 23:22:00,6.0,-99.9,-100.00,North,-999,-999.0,-999.0,-999,0.00,,,-99.99,,2013-02-25 06:22:00,
2013-02-24 23:32:00,6.0,-99.9,-100.00,North,-999,-999.0,-999.0,-999,0.00,,,-99.99,,2013-02-25 06:32:00,
2013-02-24 23:42:00,6.0,-99.9,-100.00,North,-999,-999.0,-999.0,-999,0.00,,,-99.99,,2013-02-25 06:42:00,